Vorticity
12 11 11 12 14 17 18 20 20 20 21 21 21 21 22 23 23 22 20 17 15 13 12 12 13 13 11 5 5 5 6 8 10 11 11 9 9 9 9 8 9 9 8 6 6 6 6 5 4 4 5 5 5 5 5 5 5 6 6 6 6 6 6 5 4 3 3 3 3
20 16 14 14 15 16 18 20 20 21 21 21 21 21 21 22 24 24 22 20 19 15 13 19 22 16 10 12 9 7 5 3 5 8 10 9 8 8 8 7 8 8 9 8 7 6 5 5 6 6 7 5 5 6 6 6 6 6 6 6 6 6 6 6 5 4 3 3 3
32 28 25 23 22 21 22 23 23 23 23 23 22 22 22 23 24 25 24 22 21 23 23 16 28 28 21 17 17 17 13 4 3 4 5 5 5 5 5 5 4 5 6 7 5 3 3 6 8 8 8 7 7 8 8 7 6 6 6 6 6 6 6 6 5 4 4 3 4
42 39 36 33 31 30 29 28 28 28 27 26 25 24 24 24 25 26 25 24 25 21 14 3 9 17 23 19 16 18 18 9 8 7 6 4 4 4 4 4 4 4 4 5 5 6 6 5 5 7 8 9 10 10 9 8 7 6 6 6 6 6 6 7 6 5 4 4 4
46 44 43 40 38 36 34 33 33 33 32 31 30 28 27 26 26 26 26 26 25 17 10 15 8 6 10 16 9 10 15 16 13 10 8 6 5 5 4 4 5 5 5 5 5 5 5 4 3 4 6 8 9 9 9 9 8 7 6 6 6 7 7 7 6 5 4 4 5
48 47 46 45 43 41 38 37 36 36 35 35 33 32 30 29 27 28 28 27 23 25 26 23 18 14 14 17 13 11 12 15 16 12 9 9 8 7 5 5 5 5 5 6 5 5 5 7 6 5 5 5 6 7 8 8 7 7 6 6 6 7 7 7 7 5 4 4 6
50 49 47 46 45 44 42 40 38 38 37 37 36 35 33 30 30 28 25 21 19 20 22 22 22 19 17 18 18 16 13 12 16 15 11 10 11 9 6 5 5 5 5 5 5 5 4 4 5 4 3 2 3 4 6 6 6 6 5 5 6 7 8 8 8 7 5 4 5
49 48 47 45 45 44 42 41 41 38 36 37 37 35 32 28 28 27 25 25 20 19 20 20 20 18 17 16 17 17 15 15 18 18 17 16 15 12 9 7 6 5 5 4 5 5 5 4 3 3 3 2 2 3 5 5 5 5 5 5 5 7 8 10 10 9 8 7 6
36 39 41 41 42 42 41 40 38 34 32 34 32 30 28 25 22 21 22 23 21 19 17 19 20 20 20 19 19 19 19 20 20 20 21 21 20 19 16 12 8 6 6 5 5 5 6 6 5 5 5 5 4 4 5 5 5 5 5 4 5 6 8 10 11 12 12 11 10
25 30 33 36 38 39 38 37 35 34 33 31 31 30 28 26 22 19 18 19 21 21 20 20 21 22 22 21 21 20 20 20 20 19 18 18 21 24 24 20 12 9 8 7 6 6 5 5 5 6 6 7 6 6 5 5 5 5 4 4 4 5 7 9 10 10 11 12 12
11 16 20 24 27 30 31 31 31 31 32 32 33 34 33 32 28 25 22 22 23 22 22 22 22 23 22 21 20 20 19 16 18 19 18 16 17 19 21 22 18 14 11 10 9 8 6 6 7 7 7 8 9 9 8 6 5 5 5 4 4 4 6 6 7 7 7 8 9
5 6 7 9 11 13 16 19 20 21 22 24 26 27 28 30 31 31 29 27 26 24 23 24 24 24 24 22 21 20 20 18 20 20 19 17 14 13 13 12 14 15 15 14 13 11 9 6 7 8 8 9 10 11 11 10 9 8 7 6 5 5 5 5 5 5 6 6 7
8 7 6 5 4 4 4 6 7 9 11 13 14 15 17 19 23 25 25 25 24 24 24 25 27 28 28 26 24 22 21 21 22 22 21 20 18 16 15 16 16 16 17 18 16 15 12 8 6 6 7 7 8 10 11 12 12 10 9 8 7 6 5 5 5 6 6 7 8
8 9 9 8 7 6 5 3 2 1 2 3 6 8 10 12 14 17 18 18 19 19 20 23 25 27 28 27 26 24 23 22 22 22 22 22 21 20 19 17 15 15 16 18 19 19 17 15 10 8 7 7 8 8 9 10 11 10 9 8 7 6 6 5 5 6 7 8 9
7 8 8 9 9 9 8 7 5 3 0 -1 3 7 10 11 12 14 15 15 16 16 17 19 21 23 25 26 25 25 24 24 23 22 21 22 22 21 19 17 16 15 15 17 19 21 21 20 17 14 11 12 11 10 9 9 9 9 8 7 6 6 7 7 7 8 9 9 10
7 7 7 8 9 9 8 8 7 5 3 0 5 10 13 13 13 14 15 15 15 16 17 18 19 20 21 23 23 24 24 25 24 23 22 21 21 21 20 18 17 17 16 18 19 21 22 23 22 19 16 15 14 13 12 10 10 9 9 8 8 8 8 9 9 9 10 10 11
8 7 7 7 8 8 8 8 7 6 4 3 6 10 14 15 15 16 17 17 17 17 18 18 18 19 20 21 22 23 25 26 27 26 25 23 22 21 19 19 19 19 19 18 18 19 20 21 21 21 20 18 16 15 14 13 12 12 11 11 11 10 10 10 10 10 10 11 11
8 8 8 9 10 10 10 10 9 7 6 6 4 5 8 11 14 17 20 20 20 20 20 19 18 18 18 19 20 22 23 24 27 28 26 22 21 20 19 20 19 19 19 19 19 18 18 17 18 19 19 18 18 17 17 16 15 14 13 13 13 12 11 11 11 11 11 11 11
7 8 10 13 15 16 16 17 14 13 12 12 9 6 4 3 6 11 15 17 16 17 18 18 17 16 15 15 14 13 13 14 19 21 21 18 18 18 18 18 19 19 19 19 20 19 18 17 17 17 18 18 18 18 18 17 16 16 15 15 14 13 13 12 11 11 11 10 10
7 8 9 13 17 20 22 23 20 20 20 22 20 17 12 8 7 8 9 9 3 2 5 12 15 16 14 11 5 2 1 5 10 13 13 11 13 15 17 17 18 19 19 18 20 21 20 19 18 18 18 18 19 19 19 18 18 18 18 17 16 15 14 13 12 11 11 11 10
9 7 5 3 6 11 15 17 17 17 17 16 16 16 15 15 15 16 16 14 2 -7 -9 1 13 17 15 7 -1 -4 -3 2 8 11 12 10 10 11 13 14 14 14 15 15 16 18 20 22 21 21 22 22 19 17 16 17 19 19 19 19 18 16 15 14 13 13 13 13 12
12 11 7 -0 -6 -5 -0 4 7 7 5 3 4 5 7 10 13 17 20 20 7 -5 -9 2 16 20 16 5 -4 -7 -6 -2 7 13 17 17 15 13 11 11 11 11 11 12 13 14 16 17 18 18 17 14 10 10 11 14 16 17 18 18 17 17 16 16 16 15 15 15 15
13 17 18 15 4 -4 -8 -6 -4 -2 1 3 7 9 10 9 10 11 11 9 1 -3 -1 10 20 23 18 7 -4 -8 -7 -3 3 9 14 18 18 18 16 13 12 10 10 10 12 12 13 12 13 12 10 6 4 4 6 9 11 12 13 13 14 15 15 16 16 16 15 15 15
8 13 20 25 21 11 0 -7 -5 -1 5 12 17 19 19 17 14 11 8 4 2 2 5 9 15 19 18 12 0 -6 -7 -3 1 2 3 5 9 14 17 18 16 14 11 9 9 9 9 10 11 11 10 8 5 3 3 5 5 6 6 7 9 10 11 12 12 12 12 12 12
2 5 9 16 18 15 8 1 1 4 8 12 17 22 23 20 15 10 8 7 7 6 4 2 5 11 16 17 9 2 -2 -2 -1 -1 -2 -2 2 7 14 19 19 18 16 14 11 9 8 8 8 8 8 8 7 6 4 4 3 3 3 4 6 7 8 9 10 10 9 9 9
2 1 1 2 4 5 4 3 4 4 5 6 9 12 16 18 16 14 12 11 13 12 9 2 -0 3 10 16 15 11 6 3 3 2 2 2 4 7 11 15 17 17 17 17 16 14 12 10 8 7 6 6 7 6 5 5 4 4 4 6 8 9 11 11 12 12 12 11 10
11 8 5 2 1 -0 -1 -1 -1 0 1 1 0 1 2 6 11 14 16 16 17 17 15 9 1 -4 -6 -4 1 4 6 6 7 7 8 8 8 9 10 11 13 14 15 16 17 17 16 15 13 10 8 6 6 6 6 6 6 6 7 9 10 11 13 13 14 14 14 15 15
16 14 12 10 8 5 3 1 0 1 2 2 1 -2 -4 -5 -3 1 4 6 7 8 9 9 6 1 -2 -3 -1 3 6 9 11 13 14 14 14 14 14 14 16 18 20 22 23 22 22 20 19 18 16 13 11 10 9 8 9 9 10 10 10 10 10 10 11 12 13 14 15
18 18 18 16 14 12 11 9 8 8 7 7 7 5 3 -0 -3 -4 -4 -3 -2 0 3 6 8 9 9 10 10 11 11 10 10 9 8 8 7 6 5 6 7 8 10 13 16 19 21 23 24 24 23 23 21 19 17 15 13 10 9 8 7 7 7 8 8 9 10 11 11
16 19 20 22 22 23 23 22 21 20 19 19 19 19 19 18 16 13 11 9 9 10 11 12 13 13 11 9 7 5 2 0 -2 -3 -3 -3 -2 0 2 4 5 5 4 3 1 1 1 3 6 9 12 16 18 20 21 22 21 19 16 13 11 9 8 8 8 9 9 9 8
12 14 15 17 19 21 23 25 26 26 27 27 27 28 29 30 31 31 32 31 30 29 27 25 23 20 18 15 13 11 9 8 8 8 8 9 9 10 11 13 13 14 15 16 15 14 12 9 8 7 7 7 8 10 12 14 15 17 18 18 16 14 12 10 8 7 6 6 7
11 11 11 12 12 12 13 14 14 15 16 16 16 16 16 16 16 17 17 18 19 19 20 20 20 20 20 20 20 20 19 19 18 18 17 16 14 13 13 12 13 13 14 15 15 15 15 15 14 13 11 10 10 10 10 11 11 12 12 13 14 14 14 13 12 10 8 7 6
10 10 10 9 9 9 9 8 8 8 8 8 8 8 8 8 8 8 8 8 9 9 10 10 11 11 12 12 12 13 13 13 13 12 12 12 11 10 9 9 8 8 9 9 10 11 12 12 12 12 12 12 11 11 11 12 12 12 12 12 12 12 12 12 12 12 11 10 8
8 8 8 8 8 8 8 8 8 7 7 7 7 7 7 7 7 7 7 7 6 7 7 7 7 7 7 7 7 7 7 7 7 7 7 7 7 7 6 6 6 5 5 5 5 6 6 8 9 10 10 11 11 11 11 10 10 10 11 11 12 12 12 12 12 12 12 11 10
7 7 7 7 7 7 7 7 7 7 7 7 7 6 6 6 6 6 6 6 6 6 6 6 6 5 5 5 5 5 5 5 5 5 5 5 5 4 4 4 4 4 4 3 3 3 3 4 4 5 6 7 8 9 9 10 9 9 9 9 9 9 9 10 10 10 11 11 10
6 6 6 6 6 6 6 6 6 6 6 6 6 6 5 5 5 5 5 5 5 5 5 5 5 4 4 4 4 4 4 4 4 3 3 3 3 3 3 3 3 3 3 3 2 2 2 2 2 2 2 3 3 4 5 6 6 7 7 8 8 7 7 7 8 8 8 8 8
5 5 5 5 5 5 4 4 4 5 5 5 5 5 5 4 4 4 4 4 4 4 4 4 4 4 4 3 3 3 3 3 3 3 3 3 3 3 3 2 2 2 2 2 2 2 2 1 1 1 1 1 1 2 2 2 3 3 4 5 5 5 6 6 6 6 6 6 6
4 4 4 4 4 4 4 4 4 4 4 4 4 4 4 4 4 4 4 4 3 3 3 3 3 3 3 3 3 3 3 3 3 3 3 3 3 3 3 3 2 2 2 2 2 2 2 2 2 1 1 1 1 1 1 1 1 2 2 2 3 3 4 4 4 4 5 5 5
4 4 4 4 4 4 4 4 4 4 4 4 4 4 3 3 3 3 3 3 3 3 3 3 3 3 3 2 2 3 3 3 3 3 3 3 3 3 2 3 3 3 2 2 2 2 2 2 2 2 1 1 1 1 1 1 1 1 1 1 1 2 2 2 3 3 3 3 4
4 4 4 4 4 4 4 4 4 3 3 3 3 2 2 2 2 2 2 1 1 1 1 1 1 2 2 1 2 2 2 2 2 2 2 2 2 2 2 2 2 3 3 3 2 2 2 2 2 2 2 2 1 1 1 1 1 0 0 -0 -0 0 1 1 1 1 2 2 3
4 4 4 4 3 3 3 3 2 2 2 1 1 1 0 0 0 0 0 0 0 0 0 0 1 1 1 1 1 1 2 2 2 2 2 2 3 3 3 3 3 3 4 3 3 3 3 3 3 3 3 3 3 2 2 1 1 1 1 1 0 -0 -0 -0 -0 -0 -0 0 1
Height
5586 5586 5587 5587 5588 5589 5591 5593 5594 5597 5599 5601 5603 5606 5609 5611 5614 5617 5620 5623 5626 5629 5634 5639 5642 5644 5647 5650 5652 5655 5658 5662 5665 5667 5668 5670 5671 5673 5675 5677 5679 5680 5681 5682 5683 5685 5686 5687 5688 5689 5691 5693 5694 5696 5698 5699 5700 5701 5702 5702 5703 5704 5704 5704 5705 5706 5706 5706 5707
5582 5582 5583 5584 5585 5586 5588 5589 5591 5593 5595 5598 5600 5602 5605 5608 5610 5613 5616 5619 5622 5626 5630 5634 5637 5639 5642 5644 5647 5650 5653 5656 5660 5662 5664 5665 5667 5668 5670 5672 5674 5676 5678 5679 5681 5682 5683 5683 5684 5685 5687 5689 5691 5693 5694 5695 5697 5697 5698 5699 5699 5700 5700 5701 5702 5702 5703 5703 5704
5578 5578 5579 5580 5581 5583 5584 5586 5588 5590 5592 5594 5597 5599 5601 5604 5607 5609 5613 5616 5619 5623 5627 5632 5634 5635 5637 5639 5641 5644 5646 5649 5652 5655 5658 5662 5664 5666 5667 5668 5669 5671 5673 5675 5678 5679 5679 5679 5680 5682 5683 5686 5688 5689 5691 5692 5693 5694 5694 5695 5696 5696 5697 5697 5698 5699 5699 5699 5700
5574 5574 5575 5576 5578 5579 5581 5583 5585 5587 5589 5591 5594 5596 5599 5601 5604 5606 5609 5612 5615 5619 5623 5627 5629 5630 5630 5633 5636 5639 5642 5645 5648 5651 5653 5656 5659 5661 5663 5665 5668 5668 5669 5671 5673 5675 5676 5676 5678 5680 5681 5682 5684 5686 5687 5689 5689 5690 5690 5691 5692 5693 5693 5694 5695 5695 5696 5696 5697
5571 5571 5572 5573 5574 5576 5578 5580 5582 5584 5586 5589 5591 5594 5597 5599 5601 5604 5606 5609 5613 5616 5619 5621 5623 5624 5626 5629 5632 5635 5639 5642 5645 5647 5650 5652 5654 5657 5659 5661 5664 5665 5667 5669 5670 5671 5672 5674 5677 5678 5679 5680 5681 5682 5683 5684 5686 5686 5687 5688 5689 5689 5690 5691 5691 5692 5692 5693 5694
5569 5569 5570 5571 5572 5574 5575 5577 5579 5582 5584 5586 5589 5591 5594 5597 5599 5602 5605 5609 5612 5614 5615 5617 5618 5620 5623 5626 5629 5632 5636 5639 5642 5644 5647 5650 5652 5654 5656 5657 5659 5661 5663 5665 5667 5668 5670 5673 5674 5675 5676 5677 5677 5678 5679 5681 5682 5683 5684 5684 5685 5686 5687 5687 5688 5689 5689 5690 5691
5569 5568 5569 5570 5571 5572 5574 5576 5578 5580 5582 5585 5587 5590 5593 5595 5599 5602 5606 5610 5612 5612 5613 5614 5615 5618 5620 5623 5626 5630 5633 5636 5639 5642 5644 5647 5649 5651 5654 5655 5657 5658 5660 5661 5663 5664 5666 5669 5672 5672 5671 5671 5673 5674 5676 5677 5678 5679 5680 5681 5681 5682 5684 5684 5684 5685 5686 5687 5688
5569 5568 5568 5569 5570 5572 5574 5576 5577 5579 5582 5584 5587 5590 5593 5595 5598 5600 5604 5607 5608 5609 5610 5612 5614 5616 5619 5621 5625 5628 5632 5634 5637 5639 5641 5644 5646 5648 5650 5652 5654 5655 5657 5659 5660 5661 5663 5664 5667 5668 5668 5669 5670 5671 5672 5674 5675 5676 5677 5677 5678 5679 5680 5680 5681 5681 5682 5682 5683
5570 5569 5569 5569 5571 5573 5574 5576 5578 5580 5582 5584 5588 5590 5592 5594 5596 5599 5602 5604 5605 5607 5609 5611 5613 5615 5618 5621 5624 5627 5630 5633 5635 5637 5639 5641 5643 5645 5647 5649 5651 5652 5654 5655 5657 5658 5659 5660 5661 5662 5664 5666 5667 5668 5669 5670 5671 5672 5673 5674 5674 5675 5675 5676 5677 5677 5678 5678 5679
5573 5572 5572 5572 5573 5574 5575 5577 5579 5581 5583 5585 5588 5590 5592 5594 5597 5600 5602 5603 5604 5607 5609 5610 5613 5615 5617 5620 5622 5625 5627 5629 5632 5634 5636 5638 5640 5642 5643 5645 5647 5649 5650 5652 5653 5655 5656 5657 5658 5659 5660 5661 5663 5664 5665 5667 5668 5669 5670 5670 5671 5672 5672 5673 5673 5674 5674 5674 5675
5576 5575 5575 5575 5576 5576 5577 5578 5580 5582 5584 5586 5588 5590 5592 5595 5598 5600 5602 5603 5605 5607 5609 5610 5612 5614 5616 5618 5620 5623 5625 5627 5630 5632 5634 5636 5637 5639 5640 5642 5644 5645 5647 5649 5650 5652 5653 5654 5655 5656 5658 5658 5659 5659 5661 5662 5664 5665 5666 5667 5668 5669 5670 5670 5670 5671 5671 5671 5671
5579 5578 5578 5578 5578 5579 5579 5580 5581 5583 5584 5586 5588 5590 5592 5595 5598 5599 5601 5603 5604 5606 5608 5609 5612 5613 5615 5617 5619 5621 5623 5625 5628 5629 5631 5633 5635 5636 5637 5639 5640 5642 5644 5645 5647 5649 5650 5651 5652 5653 5654 5654 5655 5657 5658 5659 5660 5660 5661 5662 5664 5664 5665 5666 5667 5668 5668 5668 5668
5581 5581 5581 5581 5581 5581 5581 5582 5583 5584 5585 5587 5589 5590 5593 5595 5597 5598 5600 5601 5603 5605 5606 5609 5610 5612 5614 5615 5617 5619 5621 5624 5625 5627 5629 5630 5632 5633 5634 5635 5637 5639 5640 5642 5643 5645 5647 5648 5649 5649 5649 5650 5651 5653 5654 5655 5656 5656 5657 5657 5657 5658 5659 5660 5662 5663 5664 5664 5664
5583 5583 5583 5583 5583 5584 5584 5585 5585 5586 5587 5589 5590 5592 5593 5594 5596 5598 5599 5600 5602 5603 5605 5607 5608 5610 5612 5614 5615 5618 5620 5621 5623 5625 5626 5628 5629 5631 5632 5633 5634 5635 5637 5638 5640 5641 5643 5644 5645 5646 5646 5647 5648 5649 5650 5651 5652 5652 5653 5653 5654 5654 5654 5655 5656 5657 5658 5659 5660
5585 5585 5585 5585 5586 5586 5587 5588 5588 5589 5590 5591 5592 5593 5594 5595 5596 5597 5599 5600 5601 5602 5604 5605 5607 5609 5610 5612 5614 5616 5618 5619 5621 5623 5624 5626 5627 5629 5629 5630 5631 5633 5634 5635 5637 5638 5639 5640 5641 5642 5643 5644 5644 5645 5646 5647 5647 5648 5649 5649 5650 5651 5651 5652 5652 5652 5653 5653 5654
5587 5587 5587 5587 5587 5588 5588 5589 5589 5590 5592 5594 5594 5594 5595 5596 5597 5598 5599 5600 5601 5602 5604 5605 5607 5608 5609 5611 5613 5614 5616 5618 5619 5621 5622 5624 5625 5626 5627 5628 5629 5630 5631 5632 5634 5634 5636 5637 5638 5639 5640 5640 5641 5641 5642 5643 5643 5644 5644 5645 5646 5647 5648 5648 5648 5649 5649 5649 5649
5588 5588 5588 5589 5589 5589 5589 5590 5591 5592 5593 5594 5594 5595 5595 5596 5597 5598 5599 5600 5601 5603 5604 5605 5607 5608 5609 5610 5612 5613 5614 5616 5617 5618 5619 5621 5622 5623 5624 5625 5626 5627 5629 5630 5631 5632 5633 5633 5634 5635 5635 5636 5637 5637 5638 5638 5639 5640 5640 5641 5642 5643 5644 5644 5644 5644 5644 5644 5645
5589 5589 5589 5589 5589 5590 5590 5591 5592 5593 5594 5594 5595 5595 5596 5597 5598 5599 5600 5601 5602 5603 5604 5605 5607 5608 5609 5610 5611 5613 5614 5615 5616 5617 5617 5618 5619 5621 5621 5622 5624 5624 5626 5627 5628 5629 5629 5630 5630 5631 5631 5632 5632 5633 5634 5634 5635 5636 5636 5637 5638 5638 5639 5639 5639 5639 5640 5640 5640
5590 5590 5590 5590 5590 5591 5591 5592 5593 5594 5594 5595 5596 5596 5597 5598 5598 5599 5600 5601 5603 5604 5604 5605 5606 5608 5609 5610 5612 5613 5614 5615 5615 5615 5616 5616 5618 5619 5619 5620 5621 5622 5623 5624 5624 5625 5626 5626 5627 5628 5628 5628 5629 5629 5629 5630 5631 5631 5632 5633 5633 5633 5634 5634 5634 5635 5635 5635 5636
5592 5592 5592 5592 5592 5592 5593 5593 5594 5594 5595 5596 5597 5598 5599 5599 5600 5601 5602 5604 5604 5605 5605 5606 5607 5608 5609 5610 5611 5612 5613 5614 5614 5614 5615 5615 5616 5617 5617 5618 5619 5620 5621 5621 5621 5621 5622 5623 5623 5624 5624 5625 5625 5625 5626 5626 5627 5627 5628 5628 5629 5629 5629 5629 5630 5630 5631 5631 5632
5593 5593 5593 5594 5594 5594 5594 5594 5595 5595 5597 5598 5599 5600 5601 5601 5602 5603 5604 5605 5605 5605 5606 5607 5607 5608 5608 5609 5609 5610 5611 5612 5612 5613 5613 5614 5614 5615 5615 5616 5617 5618 5619 5619 5619 5619 5619 5620 5620 5620 5621 5622 5622 5622 5622 5622 5623 5623 5624 5624 5624 5624 5625 5625 5625 5626 5626 5627 5627
5594 5594 5594 5594 5595 5595 5596 5596 5597 5598 5599 5599 5600 5600 5601 5601 5602 5603 5604 5605 5606 5607 5607 5607 5607 5607 5608 5608 5609 5609 5609 5610 5611 5611 5612 5613 5613 5614 5614 5614 5615 5616 5616 5617 5617 5617 5617 5618 5618 5618 5618 5618 5618 5618 5618 5618 5618 5619 5619 5619 5619 5620 5620 5621 5621 5622 5622 5622 5623
5594 5594 5594 5594 5595 5596 5597 5597 5598 5599 5599 5599 5600 5600 5601 5601 5602 5603 5603 5604 5605 5606 5606 5606 5606 5606 5607 5607 5608 5608 5609 5609 5609 5610 5610 5611 5611 5612 5612 5613 5613 5613 5614 5614 5614 5615 5616 5616 5616 5616 5615 5614 5614 5614 5614 5614 5614 5614 5615 5615 5615 5615 5616 5616 5617 5617 5618 5618 5618
5595 5595 5595 5595 5596 5597 5598 5598 5599 5599 5599 5600 5600 5600 5601 5601 5602 5602 5603 5604 5604 5605 5605 5605 5606 5606 5606 5607 5607 5607 5608 5608 5608 5608 5609 5609 5609 5610 5610 5611 5611 5611 5611 5612 5612 5613 5613 5614 5613 5613 5612 5612 5611 5611 5610 5610 5611 5611 5611 5611 5611 5611 5611 5612 5612 5612 5613 5613 5614
5596 5596 5596 5596 5597 5597 5598 5599 5599 5599 5600 5600 5600 5601 5601 5601 5602 5602 5603 5603 5604 5604 5604 5605 5605 5605 5605 5606 5606 5606 5606 5607 5607 5607 5607 5607 5607 5608 5608 5608 5609 5609 5609 5609 5609 5610 5610 5610 5610 5609 5609 5609 5609 5609 5608 5608 5608 5608 5608 5608 5608 5608 5608 5608 5608 5608 5608 5608 5609
5596 5596 5597 5597 5597 5598 5598 5599 5599 5599 5600 5600 5600 5601 5601 5601 5602 5602 5603 5603 5604 5604 5604 5604 5605 5605 5605 5605 5605 5605 5605 5605 5605 5605 5605 5605 5605 5605 5605 5605 5606 5606 5606 5607 5607 5607 5607 5607 5607 5607 5606 5606 5606 5606 5606 5605 5605 5605 5604 5604 5604 5604 5605 5605 5605 5604 5604 5604 5604
5597 5597 5597 5597 5598 5598 5599 5599 5599 5599 5599 5600 5600 5600 5601 5601 5601 5602 5602 5603 5603 5603 5604 5604 5604 5604 5604 5604 5604 5604 5604 5604 5604 5604 5604 5604 5604 5604 5604 5603 5603 5603 5603 5604 5604 5604 5604 5604 5604 5604 5604 5604 5603 5603 5603 5603 5602 5602 5601 5601 5601 5601 5601 5601 5600 5600 5600 5600 5600
5598 5598 5598 5598 5598 5599 5599 5599 5599 5599 5600 5600 5600 5600 5600 5600 5601 5601 5602 5602 5602 5603 5603 5603 5604 5604 5603 5603 5603 5603 5603 5603 5603 5603 5602 5602 5602 5602 5602 5601 5601 5601 5601 5601 5600 5600 5600 5600 5600 5600 5600 5600 5600 5599 5599 5599 5599 5598 5598 5597 5597 5597 5597 5597 5596 5596 5596 5596 5595
5598 5598 5598 5599 5599 5599 5599 5599 5599 5600 5600 5600 5600 5600 5600 5600 5600 5601 5601 5601 5601 5602 5602 5602 5602 5602 5602 5602 5602 5602 5602 5602 5601 5601 5601 5600 5600 5600 5600 5599 5599 5599 5599 5598 5598 5598 5598 5598 5597 5597 5597 5596 5596 5595 5595 5595 5594 5594 5594 5593 5593 5593 5593 5593 5592 5592 5592 5591 5591
5599 5599 5599 5599 5599 5599 5599 5599 5600 5600 5600 5600 5600 5600 5600 5600 5600 5600 5600 5600 5601 5601 5601 5601 5601 5601 5601 5601 5601 5601 5601 5600 5600 5599 5599 5599 5598 5598 5598 5597 5597 5597 5597 5596 5596 5596 5595 5595 5594 5594 5594 5593 5593 5592 5591 5591 5590 5590 5589 5589 5589 5588 5588 5588 5588 5587 5587 5587 5586
5599 5599 5599 5599 5599 5599 5599 5599 5600 5600 5600 5600 5600 5600 5600 5600 5600 5600 5600 5600 5600 5600 5600 5600 5600 5600 5600 5599 5599 5599 5599 5599 5598 5598 5597 5597 5596 5595 5595 5594 5594 5594 5594 5593 5593 5593 5592 5592 5591 5591 5590 5589 5589 5589 5588 5588 5587 5586 5585 5585 5584 5584 5583 5583 5582 5582 5582 5581 5581
5599 5599 5599 5599 5599 5599 5599 5599 5599 5599 5599 5599 5599 5599 5599 5599 5599 5599 5599 5599 5599 5599 5599 5599 5599 5599 5598 5598 5598 5597 5597 5597 5596 5596 5595 5594 5594 5594 5593 5592 5592 5591 5591 5590 5590 5589 5589 5588 5588 5587 5586 5586 5585 5584 5584 5584 5583 5582 5582 5581 5580 5579 5579 5578 5577 5577 5576 5576 5576
5600 5600 5600 5600 5600 5600 5600 5600 5599 5599 5599 5599 5599 5599 5599 5599 5599 5599 5599 5598 5598 5598 5598 5598 5598 5597 5597 5597 5596 5596 5595 5595 5594 5594 5593 5593 5592 5591 5591 5590 5589 5589 5588 5588 5587 5586 5586 5585 5584 5584 5583 5582 5581 5580 5580 5579 5579 5578 5577 5577 5576 5575 5574 5574 5573 5572 5571 5571 5570
5600 5600 5600 5600 5600 5600 5600 5600 5600 5600 5600 5599 5599 5599 5599 5599 5599 5599 5598 5598 5598 5597 5597 5597 5596 5596 5595 5595 5594 5594 5594 5593 5592 5592 5591 5590 5590 5589 5588 5588 5587 5586 5585 5584 5584 5583 5583 5582 5581 5580 5579 5579 5578 5577 5576 5575 5574 5574 5573 5572 5571 5571 5570 5569 5568 5567 5567 5566 5565
5601 5601 5601 5601 5600 5600 5600 5600 5600 5600 5600 5600 5599 5599 5599 5599 5598 5598 5598 5597 5597 5596 5596 5595 5595 5594 5594 5593 5593 5592 5591 5591 5590 5589 5588 5588 5587 5586 5585 5584 5584 5583 5582 5581 5580 5579 5579 5578 5577 5576 5575 5574 5574 5573 5572 5571 5570 5569 5569 5568 5567 5566 5565 5564 5564 5563 5562 5561 5560
5601 5601 5601 5601 5600 5600 5600 5600 5600 5599 5599 5599 5599 5599 5598 5598 5598 5597 5597 5596 5596 5595 5595 5594 5593 5593 5592 5591 5590 5590 5589 5588 5587 5586 5585 5584 5584 5583 5582 5581 5580 5579 5578 5577 5576 5575 5574 5573 5572 5571 5570 5569 5569 5568 5567 5566 5565 5565 5564 5563 5562 5561 5560 5559 5558 5557 5556 5556 5555
5600 5600 5600 5600 5600 5600 5599 5599 5599 5599 5598 5598 5598 5597 5597 5596 5596 5595 5595 5594 5594 5593 5593 5592 5591 5591 5590 5589 5588 5587 5586 5585 5584 5583 5582 5581 5580 5579 5578 5577 5576 5575 5574 5572 5571 5570 5569 5568 5567 5566 5565 5564 5563 5562 5561 5560 5559 5559 5558 5558 5557 5556 5555 5554 5553 5552 5551 5550 5549
5600 5600 5599 5599 5599 5599 5598 5598 5598 5597 5597 5596 5596 5595 5595 5594 5594 5593 5593 5592 5591 5591 5590 5589 5589 5588 5587 5586 5585 5584 5583 5582 5581 5580 5579 5578 5577 5575 5574 5573 5572 5571 5569 5568 5567 5565 5564 5563 5562 5560 5559 5558 5557 5555 5554 5553 5552 5552 5551 5550 5550 5549 5548 5548 5547 5546 5545 5544 5543
5599 5599 5599 5599 5598 5598 5597 5597 5596 5596 5595 5595 5594 5594 5593 5593 5592 5591 5591 5590 5589 5589 5588 5587 5586 5585 5584 5583 5582 5581 5580 5579 5578 5577 5576 5574 5573 5572 5571 5569 5568 5567 5565 5564 5562 5561 5559 5558 5557 5555 5554 5553 5551 5549 5548 5547 5546 5544 5544 5543 5542 5541 5541 5540 5539 5539 5538 5537 5536
5599 5598 5598 5598 5597 5597 5597 5596 5596 5595 5594 5594 5594 5593 5592 5592 5591 5590 5589 5588 5587 5587 5586 5585 5584 5583 5582 5581 5580 5579 5577 5576 5575 5574 5572 5571 5570 5568 5567 5565 5564 5563 5561 5560 5558 5556 5555 5553 5552 5550 5549 5547 5545 5544 5542 5541 5539 5538 5537 5535 5534 5534 5533 5532 5531 5531 5530 5529 5529
5598 5598 5597 5597 5597 5596 5596 5595 5595 5594 5594 5593 5592 5592 5591 5590 5589 5588 5587 5586 5585 5584 5583 5582 5581 5580 5579 5578 5576 5575 5574 5572 5571 5569 5568 5566 5565 5564 5562 5560 5559 5557 5556 5554 5553 5551 5549 5548 5546 5544 5543 5541 5539 5538 5536 5535 5533 5531 5530 5529 5527 5526 5525 5524 5523 5522 5521 5520 5520